Simultaneous Nadir Overpasses (SNOs) Predictions

Prediction of SNOs between NOAA-19 and TERRA Satellite Orbit:

Table of predicted SNOs for the next 14.0 days since TLE Epoch: 3/9/2024
Index Date (NOAA-19) Time (NOAA-19) Lat,Lon (NOAA-19) SZA (NOAA-19 ) Date (TERRA) Time (TERRA) Lat,Lon (TERRA) SZA (TERRA ) Distance(km) Time Diff (sec)
1 03/10/2024 01:51:22 -80.15, -5.34 95.36 03/10/2024 01:51:12 -80.15, -5.42 95.36 1.52 10
2 03/12/2024 04:50:34 -80.06, -51.19 96.32 03/12/2024 04:51:27 -80.05, -51.25 96.32 1.24 53
3 03/12/2024 05:41:34 80.15, 117.26 83.83 03/12/2024 05:40:45 80.15, 117.17 83.80 1.69 49
4 03/14/2024 08:40:46 80.07, 71.39 82.85 03/14/2024 08:40:59 80.08, 71.52 82.87 2.61 13
5 03/16/2024 12:30:48 -80.08,-165.92 97.97 03/16/2024 12:30:33 -80.08,-165.92 97.98 0.22 15
6 03/18/2024 15:29:59 -80.00, 148.42 98.92 03/18/2024 15:30:46 -80.01, 148.49 98.90 1.63 47
7 03/18/2024 16:20:59 80.10, -43.07 81.24 03/18/2024 16:20:04 80.11, -43.07 81.23 0.36 55
8 03/20/2024 19:20:10 80.03, -88.78 80.28 03/20/2024 19:20:17 80.03, -88.77 80.29 0.55 7
9 03/22/2024 22:19:21 79.94,-134.54 79.32 03/22/2024 22:20:30 79.94,-134.56 79.33 0.39 69



Historial Predications of SNOs between NOAA-19 and TERRA
